| time (UTC) | temp C | wind direction | speed KPH | gust KPH | rain 1hr cm | rain 24hr cm | rain mn cm | humidity % | barometer mb |
| 20260505114516 | 3 | 0.0 | 0.0 | 0.00 | 0.00 | 0.00 | 74 | 1005.3 | |
| 20260505113517 | 2 | 0.0 | 0.0 | 0.00 | 0.00 | 0.00 | 74 | 1005.3 | |
| 20260505112517 | 2 | 0.0 | 0.0 | 0.00 | 0.00 | 0.00 | 75 | 1005.4 | |
| 20260505111516 | 2 | 0.0 | 0.0 | 0.00 | 0.00 | 0.00 | 76 | 1005.3 | |
| 20260505110516 | 1 | 0.0 | 0.0 | 0.00 | 0.00 | 0.00 | 76 | 1005.2 | |
| 20260505101516 | 2 | 0.0 | 0.0 | 0.00 | 0.00 | 0.00 | 73 | 1004.9 | |
| 20260505100517 | 2 | 0.0 | 0.0 | 0.00 | 0.00 | 0.00 | 73 | 1004.8 | |
| 20260505095537 | 2 | 0.0 | 0.0 | 0.00 | 0.00 | 0.00 | 72 | 1004.8 | |
| 20260505094516 | 2 | 0.0 | 0.0 | 0.00 | 0.00 | 0.00 | 72 | 1004.7 | |
| 20260505093516 | 2 | 0.0 | 0.0 | 0.00 | 0.00 | 0.00 | 73 | 1004.5 | |
| 20260505092517 | 2 | 0.0 | 0.0 | 0.00 | 0.00 | 0.00 | 73 | 1004.4 | |
| 20260505091518 | 2 | 0.0 | 0.0 | 0.00 | 0.00 | 0.00 | 71 | 1004.3 | |
| 20260505090518 | 2 | 0.0 | 0.0 | 0.00 | 0.00 | 0.00 | 70 | 1003.9 | |
| 20260505085516 | 2 | 0.0 | 0.0 | 0.00 | 0.00 | 0.00 | 69 | 1003.8 | |
| 20260505084516 | 2 | 0.0 | 0.0 | 0.00 | 0.00 | 0.00 | 66 | 1003.6 | |
| 20260505083517 | 3 | 0.0 | 0.0 | 0.00 | 0.00 | 0.00 | 64 | 1003.4 | |
| 20260505082536 | 3 | 0.0 | 0.0 | 0.00 | 0.00 | 0.00 | 61 | 1003.4 | |
| 20260505081516 | 3 | 0.0 | 0.0 | 0.00 | 0.00 | 0.00 | 59 | 1003.5 | |
| 20260505080517 | 4 | 0.0 | 0.0 | 0.00 | 0.00 | 0.00 | 58 | 1003.5 | |
| 20260505075517 | 5 | 0.0 | 0.0 | 0.00 | 0.00 | 0.00 | 57 | 1003.4 | |
| 20260505074517 | 5 | 0.0 | 0.0 | 0.00 | 0.00 | 0.00 | 54 | 1003.4 | |
| 20260505073516 | 6 | 0.0 | 0.0 | 0.00 | 0.00 | 0.00 | 52 | 1003.5 | |
| 20260505072536 | 6 | 0.0 | 0.0 | 0.00 | 0.00 | 0.00 | 51 | 1003.7 | |
| 20260505071516 | 6 | 0.0 | 0.0 | 0.00 | 0.00 | 0.00 | 51 | 1003.7 | |
| 20260505070538 | 7 | 0.0 | 0.0 | 0.00 | 0.00 | 0.00 | 50 | 1003.7 | |
| 20260505065516 | 7 | 0.0 | 0.0 | 0.00 | 0.00 | 0.00 | 50 | 1003.7 | |
| 20260505064537 | 7 | 0.0 | 17.7 | 0.00 | 0.00 | 0.00 | 49 | 1003.8 | |
| 20260505063516 | 7 | 0.0 | 0.0 | 0.00 | 0.00 | 0.00 | 52 | 1003.7 | |
| 20260505062516 | 7 | 0.0 | 0.0 | 0.00 | 0.00 | 0.00 | 51 | 1003.5 | |
| 20260505061516 | 8 | 0.0 | 4.8 | 0.00 | 0.00 | 0.00 | 50 | 1003.5 | |
| 20260505060517 | 8 | 0.0 | 4.8 | 0.00 | 0.00 | 0.00 | 50 | 1003.5 | |
| 20260505055517 | 8 | 0.0 | 0.0 | 0.00 | 0.00 | 0.00 | 51 | 1003.3 | |
| 20260505054517 | 8 | 0.0 | 6.4 | 0.00 | 0.00 | 0.00 | 51 | 1003.4 | |
| 20260505053517 | 8 | 0.0 | 0.0 | 0.00 | 0.00 | 0.00 | 51 | 1003.3 | |
| 20260505052516 | 8 | 0.0 | 11.3 | 0.00 | 0.00 | 0.00 | 50 | 1003.1 | |
| 20260505051537 | 8 | 0.0 | 12.9 | 0.00 | 0.00 | 0.00 | 49 | 1002.9 | |
| 20260505050516 | 9 | 0.0 | 11.3 | 0.00 | 0.00 | 0.00 | 50 | 1002.8 | |
| 20260505041515 | 10 | 0.0 | 8.0 | 0.00 | 0.00 | 0.00 | 45 | 1001.9 | |
| 20260505040515 | 11 | 0.0 | 0.0 | 0.00 | 0.00 | 0.00 | 45 | 1001.6 | |
| 20260505035535 | 11 | 0.0 | 8.0 | 0.00 | 0.00 | 0.00 | 44 | 1001.3 | |
| 20260505034515 | 11 | 0.0 | 8.0 | 0.00 | 0.00 | 0.00 | 45 | 1001.0 | |
| 20260505033536 | 11 | 0 | 1.6 | 25.7 | 0.00 | 0.00 | 0.00 | 44 | 1000.7 |
| 20260505032515 | 12 | 23 | 6.4 | 37.0 | 0.00 | 0.00 | 0.00 | 46 | 1000.3 |
| 20260505031515 | 12 | 0 | 1.6 | 27.4 | 0.00 | 0.00 | 0.00 | 46 | 1000.0 |
| 20260505030515 | 12 | 0.0 | 20.9 | 0.00 | 0.00 | 0.00 | 46 | 999.8 | |
| 20260505025515 | 13 | 0.0 | 1.6 | 0.00 | 0.00 | 0.00 | 45 | 999.5 | |
| 20260505024516 | 13 | 0 | 1.6 | 25.7 | 0.00 | 0.00 | 0.00 | 44 | 999.5 |
| 20260505023515 | 13 | 0.0 | 19.3 | 0.00 | 0.00 | 0.00 | 43 | 999.3 | |
| 20260505022515 | 13 | 0.0 | 11.3 | 0.00 | 0.00 | 0.00 | 44 | 999.1 | |
| 20260505021516 | 13 | 0 | 1.6 | 24.1 | 0.00 | 0.00 | 0.00 | 43 | 998.9 |
| 20260505020515 | 13 | 0.0 | 4.8 | 0.00 | 0.00 | 0.00 | 42 | 998.6 | |
| 20260505015515 | 14 | 0.0 | 4.8 | 0.00 | 0.00 | 0.00 | 41 | 998.4 | |
| 20260505014656 | 14 | 0.0 | 14.5 | 0.00 | 0.00 | 0.00 | 41 | 998.2 | |
| 20260505013516 | 15 | 0.0 | 6.4 | 0.00 | 0.00 | 0.00 | 40 | 998.1 | |
| 20260505012515 | 15 | 0.0 | 19.3 | 0.00 | 0.00 | 0.00 | 39 | 997.8 | |
| 20260505011516 | 15 | 0.0 | 0.0 | 0.00 | 0.00 | 0.00 | 39 | 997.6 | |
| 20260505010515 | 15 | 0.0 | 0.0 | 0.00 | 0.00 | 0.00 | 38 | 997.4 | |
| 20260505005515 | 16 | 0.0 | 0.0 | 0.00 | 0.00 | 0.00 | 38 | 997.1 | |
| 20260505004536 | 16 | 0.0 | 0.0 | 0.00 | 0.00 | 0.00 | 39 | 996.8 | |
| 20260505003516 | 16 | 0.0 | 4.8 | 0.00 | 0.00 | 0.00 | 39 | 996.4 | |
| 20260505002515 | 17 | 0.0 | 1.6 | 0.00 | 0.00 | 0.00 | 38 | 996.3 | |
| 20260505001515 | 17 | 0.0 | 0.0 | 0.00 | 0.00 | 0.00 | 35 | 995.9 | |
| 20260505000536 | 17 | 0.0 | 8.0 | 0.00 | 0.00 | 0.00 | 36 | 995.7 | |
| 20260504235515 | 17 | 0.0 | 0.0 | 0.00 | 0.00 | 0.00 | 35 | 995.6 | |
| 20260504234515 | 18 | 0.0 | 17.7 | 0.00 | 0.00 | 0.00 | 33 | 995.4 | |
| 20260504233516 | 18 | 0.0 | 1.6 | 0.00 | 0.00 | 0.00 | 34 | 995.1 | |
| 20260504232518 | 18 | 0.0 | 12.9 | 0.00 | 0.00 | 0.00 | 34 | 995.1 | |
| 20260504231519 | 18 | 0.0 | 16.1 | 0.00 | 0.00 | 0.00 | 33 | 995.2 | |
| 20260504230518 | 18 | 0.0 | 1.6 | 0.00 | 0.00 | 0.00 | 32 | 995.1 | |
| 20260504225517 | 19 | 0.0 | 9.7 | 0.00 | 0.00 | 0.00 | 33 | 995.2 | |
| 20260504224517 | 19 | 0.0 | 11.3 | 0.00 | 0.00 | 0.00 | 31 | 995.0 | |
| 20260504223517 | 20 | 0 | 1.6 | 25.7 | 0.00 | 0.00 | 0.00 | 31 | 995.0 |
| 20260504222517 | 20 | 0.0 | 0.0 | 0.00 | 0.00 | 0.00 | 33 | 994.9 | |
| 20260504221518 | 20 | 338 | 1.6 | 20.9 | 0.00 | 0.00 | 0.00 | 32 | 994.8 |
| 20260504220517 | 20 | 0.0 | 20.9 | 0.00 | 0.00 | 0.00 | 32 | 994.7 | |
| 20260504220018 | 20 | 0.0 | 6.4 | 0.00 | 0.00 | 0.00 | 34 | 994.9 | |
| 20260504215017 | 21 | 338 | 1.6 | 24.1 | 0.00 | 0.00 | 0.00 | 32 | 994.8 |
| 20260504214037 | 21 | 0.0 | 27.4 | 0.00 | 0.00 | 0.00 | 33 | 994.7 | |
| 20260504213017 | 21 | 0.0 | 0.0 | 0.00 | 0.00 | 0.00 | 36 | 994.5 | |
| 20260504212017 | 22 | 0.0 | 16.1 | 0.00 | 0.00 | 0.00 | 36 | 994.2 | |
| 20260504211017 | 22 | 0.0 | 8.0 | 0.00 | 0.00 | 0.00 | 36 | 993.9 | |
| 20260504210017 | 22 | 0.0 | 19.3 | 0.00 | 0.00 | 0.00 | 35 | 993.9 | |
| 20260504205017 | 22 | 0.0 | 0.0 | 0.00 | 0.00 | 0.00 | 35 | 993.7 | |
| 20260504204017 | 22 | 0 | 3.2 | 32.2 | 0.00 | 0.00 | 0.00 | 35 | 993.8 |
| 20260504203017 | 22 | 0.0 | 1.6 | 0.00 | 0.00 | 0.00 | 36 | 993.7 | |
| 20260504202018 | 23 | 0.0 | 25.7 | 0.00 | 0.00 | 0.00 | 35 | 993.7 | |
| 20260504201017 | 22 | 0.0 | 4.8 | 0.00 | 0.00 | 0.00 | 37 | 993.7 | |
| 20260504200017 | 23 | 0 | 4.8 | 48.3 | 0.00 | 0.00 | 0.00 | 35 | 993.6 |
| 20260504195017 | 23 | 0.0 | 9.7 | 0.00 | 0.00 | 0.00 | 38 | 993.4 | |
| 20260504194038 | 23 | 338 | 1.6 | 16.1 | 0.00 | 0.00 | 0.00 | 38 | 993.6 |
| 20260504193017 | 23 | 0 | 1.6 | 37.0 | 0.00 | 0.00 | 0.00 | 39 | 993.7 |
| 20260504192017 | 23 | 338 | 1.6 | 24.1 | 0.00 | 0.00 | 0.00 | 40 | 993.7 |
| 20260504191038 | 23 | 0 | 1.6 | 30.6 | 0.00 | 0.00 | 0.00 | 41 | 993.7 |
| 20260504190017 | 23 | 315 | 1.6 | 20.9 | 0.00 | 0.00 | 0.00 | 39 | 993.7 |
| 20260504185037 | 23 | 0.0 | 9.7 | 0.00 | 0.00 | 0.00 | 41 | 993.8 | |
| 20260504184017 | 23 | 0 | 11.3 | 37.0 | 0.00 | 0.00 | 0.00 | 42 | 993.8 |
| 20260504183017 | 23 | 338 | 12.9 | 24.1 | 0.00 | 0.00 | 0.00 | 40 | 993.9 |
| 20260504182018 | 23 | 315 | 17.7 | 40.2 | 0.00 | 0.00 | 0.00 | 41 | 993.8 |
| 20260504181017 | 23 | 338 | 20.9 | 40.2 | 0.00 | 0.00 | 0.00 | 41 | 993.7 |
| 20260504180018 | 22 | 338 | 20.9 | 43.5 | 0.00 | 0.00 | 0.00 | 40 | 993.8 |
| 20260504175017 | 22 | 338 | 20.9 | 38.6 | 0.00 | 0.00 | 0.00 | 40 | 993.8 |
| 20260504174017 | 22 | 0 | 4.8 | 53.1 | 0.00 | 0.00 | 0.00 | 41 | 993.8 |
| 20260504173015 | 22 | 0.0 | 24.1 | 0.00 | 0.00 | 0.00 | 39 | 994.1 | |
| 20260504172017 | 23 | 0.0 | 4.8 | 0.00 | 0.00 | 0.00 | 40 | 994.3 | |
| 20260504171018 | 22 | 338 | 3.2 | 27.4 | 0.00 | 0.00 | 0.00 | 40 | 994.3 |
| 20260504151023 | 21 | 270 | 1.6 | 32.2 | 0.00 | 0.00 | 0.00 | 39 | 994.9 |
| 20260504141016 | 18 | 270 | 1.6 | 17.7 | 0.00 | 0.00 | 0.00 | 44 | 995.9 |